CZ-6A DEB, 56256

Orbit data source: Space-Track

CZ-6A DEB, 56256 is space debris in SSO originally from a launch on Fri, 11 Nov 2022 UTC launched from the Taiyaun Space Center, China (TSC). Debris objects in space refer to the collection of defunct objects orbiting the Earth. Examples of debris include non-operational satellites, rocket bodies, and fragments generated from explosions, collisions, or faulty payload assembly.

Loading next visibility...
Identifier
56256, 2022-151ABY
Orbit
SSO
Country
Flag of CNCN / PRC
Related business
Manufacturer
SAST
Mission
Spacecraft
Bus & Motor
Unknown
Mass
Unknown
Launch date (UTC)
2022-11-11 (3 years ago)
Launch vehicle
Unknown
Launch site
Taiyaun Space Center, China (TSC)
Object type
Payload
Rocket body
Debris
Shape & HBR
Unknown shape, 0.1 m
Radar Cross Section
Small (<0.1 m²)

Expand to show TLE details & history
Last TLE update: 12 hours ago

TLE from 12 hours ago
0 CZ-6A DEB
1 56256U 22151ABY 26130.39390799  .00000947  00000-0  19744-3 0  9994
2 56256  98.5742 193.8372 0141371 302.9503  55.8165 14.56515756166461
Epoch: 2026-05-10T09:27Z
TLE epoch observation values (Epoch: 2026-05-10T09:27:13.650Z)
Latitude
-0.00006°
Longitude
-176.16729°
Altitude
652.129 km
Speed
7.561 km/s
True Right ascension
12h 55m 20s
True Declination
0° 00' 00"
Sunlit
Object was in full shadow at epoch
Visualization orbit readout
Latitude
Unknown
Longitude
Unknown
Altitude
Unknown
Speed
Unknown
Apparent Right ascension
Unknown
Apparent Declination
Unknown
Sunlit
N/A
Visualization observer readout
Local Sidereal Time
05:31:09
Azimuth
Unknown
Elevation
Unknown
Doppler factor
Unknown
Orbital elements
Apogee altitude
801.636 km
Perigee altitude
601.463 km
Semi-major axis
7,079.686 km
Eccentricity
0.01414
Inclination
98.5742°
RAAN
193.8372°
Arg. of periapsis
302.9503°
True anomaly
57.16993°
Mean anomaly
55.8165°
Eccentric anomaly
56.49188°
Mean motion
3.64353 °/min
Orbital period
98.81 mins
BSTAR
0.00019744
Loading maneuver chart data...
Computing Atmospheric mass density...
Loading historical data...
Loading historical data...
Loading historical data...
Loading historical data...
Loading historical data...
Loading historical data...
Loading historical data...

Documentation

Showing up to 5 results
|